User: anonymous   Login
Location: Chenango Forks
(42.2242°N, 75.8278°W)
Time: 12:39:10
(UTC-04:00)
Language:

Okean 3 Rocket - Orbit

View from above orbital plane
View from above orbital plane
View from above satellite
View from above satellite

Ground track
Ground track

The orbit data is extracted from the following two-line orbital elements,

1 21398U 91039B   16178.57312913  .00000070  00000-0  63151-5 0  9997
2 21398  82.5216 197.2037 0019895 268.2095 210.9717 14.79611295351328
Epoch (UTC): 26 June 2016 13:45:18
Eccentricity: 0.0019895
inclination: 82.5216°
perigee height: 616 km
apogee height: 644 km
right ascension of ascending node: 197.2037°
argument of perigee: 268.2095°
revolutions per day: 14.79611295
mean anomaly at epoch: 210.9717°
orbit number at epoch: 35132

The dashed part of the orbit path shows where the satellite is in the earth's shadow,  

DLR